Covington, KY

3:57 PM EDT on April 27, 2017 (GMT -0400)
Cincinnati-Northern KY International

Weather History for KCVG - May, 2013

Change the Weather History Date:

Wednesday, May 15, 2013

  Actual Average Record
Temperature  
Mean Temperature 77 °F 63 °F  
Max Temperature 86 °F 73 °F 89 °F (1944)
Min Temperature 67 °F 53 °F 34 °F (1973)
Degree Days  
Heating Degree Days 0 4  
Month to date heating degree days 69 80  
Since 1 July heating degree days 4957 4914  
Cooling Degree Days 12 2  
Month to date cooling degree days 25 22  
Year to date cooling degree days 48 40  
Growing Degree Days 26 (Base 50)    
Moisture  
Dew Point 56 °F    
Average Humidity 54    
Maximum Humidity 73    
Minimum Humidity 34    
Precipitation  
Precipitation 0.00 in 0.16 in 2.59 in (1996)
Month to date precipitation 4.13 2.39  
Year to date precipitation 16.79 16.05  
Snow  
Snow 0.00 in 0.00 in 0.00 in ()
Month to date snowfall 0.0 0.0  
Since 1 July snowfall 25.2 22.1  
Snow Depth 0.00 in    
Sea Level Pressure  
Sea Level Pressure 29.86 in    
Wind  
Wind Speed 12 mph (SW)    
Max Wind Speed 21 mph    
Max Gust Speed 29 mph    
Visibility 10 miles    
Events      
T = Trace of Precipitation, MM = Missing Value Source: NWS Daily Summary

Daily Weather History Graph

Daily Weather History Graph

Search for Another Location

Airport or City:

Trip Planner

Search our weather history database for the weather conditions in past years. The results will help you decide how hot, cold, wet, or windy it might be!

Date:

Astronomy

May. 15, 2013 Rise Set
Actual Time 6:25 AM EDT 8:44 PM EDT
Civil Twilight 5:55 AM EDT 9:15 PM EDT
Nautical Twilight 5:18 AM EDT 9:52 PM EDT
Astronomical Twilight 4:37 AM EDT 10:33 PM EDT
Moon 10:59 AM EDT (5/15) 12:31 AM EDT (5/15)
Length of Visible Light 15h 19m
Length of Day
14h 19m
Waxing Crescent, 26% of the Moon is Illuminated
May 15
Waxing Crescent
May 18
First Quarter
May 25
Full
May 31
Last Quarter
Jun 8
New

Hourly Weather History & Observations

Time (EDT) Temp. Heat Index Dew Point Humidity Pressure Visibility Wind Dir Wind Speed Gust Speed Precip Events Conditions
12:52 AM 71.1 °F - 57.0 °F 61% 29.85 in 10.0 mi SW 12.7 mph 18.4 mph N/A   Clear
1:52 AM 71.1 °F - 57.0 °F 61% 29.84 in 10.0 mi SW 11.5 mph 17.3 mph N/A   Clear
2:52 AM 70.0 °F - 57.0 °F 63% 29.84 in 10.0 mi SW 12.7 mph 17.3 mph N/A   Clear
3:52 AM 70.0 °F - 57.0 °F 63% 29.84 in 10.0 mi SW 13.8 mph 19.6 mph N/A   Clear
4:52 AM 69.1 °F - 57.0 °F 65% 29.86 in 10.0 mi SW 9.2 mph - N/A   Clear
5:52 AM 68.0 °F - 57.0 °F 68% 29.86 in 10.0 mi SW 8.1 mph 17.3 mph N/A   Scattered Clouds
6:52 AM 66.9 °F - 57.9 °F 73% 29.87 in 10.0 mi WSW 9.2 mph 18.4 mph N/A   Scattered Clouds
7:52 AM 70.0 °F - 57.9 °F 65% 29.89 in 10.0 mi SW 10.4 mph - N/A   Partly Cloudy
8:52 AM 73.0 °F - 57.9 °F 59% 29.91 in 10.0 mi WSW 11.5 mph 20.7 mph N/A   Scattered Clouds
9:52 AM 77.0 °F - 57.0 °F 50% 29.91 in 10.0 mi WSW 15.0 mph 27.6 mph N/A   Partly Cloudy
10:52 AM 80.1 °F 80.4 °F 57.0 °F 45% 29.90 in 10.0 mi WSW 15.0 mph 26.5 mph N/A   Partly Cloudy
11:52 AM 81.0 °F 81.0 °F 57.0 °F 44% 29.91 in 10.0 mi WSW 16.1 mph 25.3 mph N/A   Partly Cloudy
12:52 PM 82.9 °F 82.6 °F 57.9 °F 42% 29.90 in 10.0 mi WSW 19.6 mph 26.5 mph N/A   Clear
1:52 PM 84.9 °F 84.2 °F 57.9 °F 40% 29.88 in 10.0 mi WSW 13.8 mph 21.9 mph N/A   Partly Cloudy
2:52 PM 84.9 °F 84.2 °F 57.9 °F 40% 29.86 in 10.0 mi WSW 13.8 mph 20.7 mph N/A   Clear
3:52 PM 86.0 °F 84.9 °F 57.0 °F 37% 29.84 in 10.0 mi SW 11.5 mph - N/A   Scattered Clouds
4:52 PM 84.9 °F 83.6 °F 55.0 °F 36% 29.83 in 10.0 mi WSW 11.5 mph 23.0 mph N/A   Scattered Clouds
5:52 PM 84.0 °F 82.6 °F 54.0 °F 35% 29.83 in 10.0 mi SW 11.5 mph 20.7 mph N/A   Scattered Clouds
6:52 PM 82.9 °F 81.8 °F 53.1 °F 36% 29.82 in 10.0 mi SW 13.8 mph 24.2 mph N/A   Scattered Clouds
7:52 PM 80.1 °F 80.0 °F 54.0 °F 40% 29.83 in 10.0 mi SW 6.9 mph - N/A   Scattered Clouds
8:52 PM 77.0 °F - 54.0 °F 45% 29.84 in 10.0 mi SW 10.4 mph - N/A   Scattered Clouds
9:52 PM 75.0 °F - 54.0 °F 48% 29.86 in 10.0 mi SW 8.1 mph - N/A   Scattered Clouds
10:52 PM 75.0 °F - 54.0 °F 48% 29.86 in 10.0 mi SW 11.5 mph 18.4 mph N/A   Scattered Clouds
11:52 PM 73.0 °F - 54.0 °F 51% 29.85 in 10.0 mi SW 10.4 mph - N/A   Mostly Cloudy